(1) Ceres
ephemeris date magn radius delta ra dec elong phase
Today20 Jul 20258.82.968 AU2.586 AU01h13m-05°18'102.0°19.6°
Opposition2 Oct 20257.62.939 AU1.961 AU00h57m-10°13'164.9°5.1°
(1) Ceres - 2025-07-20
astro.vanbuitenen.nl


 
-1 year
-1 month
-1 day
Now
+1 day
+1 month
+1 year

The interactive orbit chart above shows the body's path through the solar system and its position at the given date. Green and blue lines are shown perpendicular to the ecliptic plane: Green if the path is above the ecliptic plane, blue if it is below. (Left-click and drag to rotate the view; Right-click and drag to move the view; Use scroll wheel to zoom in our out.)

The orbital elements of Ceres are:

            e (Eccentricity)                : 0.0794013
            a (Semimajor axis)              : 2.7660512
            i (Inclination)                 : 10.58780
            Ω (Longitude of ascending node) : 80.25221
            ω (Argument of perihelion)      : 73.27343
            M (Mean anomaly)                : 188.70269
            Epoch                           : 2025 May 05

            L (Longitude of perihelion)     : 153.25251
            B (Latitude of perihelion)      : 10.13498
            P (Orbital period in years)     : 4.60            
        

The light curve chart below shows the estimated development of the minor planet's magnitude.


The all-sky chart below shows the path of the minor planet over the same period as the light curve. The current position is marked yellow.





The following chart shows the path of the minor planet in the next few days. The field of view is optimized for (~10x50) binoculars and finderscopes. A more printer-friendly version of the same chart can be found below.




Ephemerides:
Date       Time       RA (2000)    DEC (2000)    delta   radius  elong  phase   PA    magn
2025-07-20 00:00 UT   01 13 49.7   -05 18 08     2.586    2.968  102.0   19.6   250    8.8 
2025-07-20 06:38 UT   01 13 58.6   -05 18 16     2.582    2.968  102.2   19.6   250    8.7 
2025-07-21 00:00 UT   01 14 21.6   -05 18 38     2.573    2.968  102.8   19.5   250    8.7 
2025-07-22 00:00 UT   01 14 52.5   -05 19 16     2.560    2.967  103.6   19.4   250    8.7 
2025-07-23 00:00 UT   01 15 22.3   -05 20 01     2.546    2.967  104.4   19.4   251    8.7 
2025-07-24 00:00 UT   01 15 51.1   -05 20 53     2.533    2.967  105.2   19.3   251    8.7 
2025-07-25 00:00 UT   01 16 18.7   -05 21 54     2.520    2.966  106.1   19.2   251    8.7 
2025-07-26 00:00 UT   01 16 45.3   -05 23 02     2.507    2.966  106.9   19.1   251    8.7 
2025-07-27 00:00 UT   01 17 10.8   -05 24 18     2.494    2.966  107.7   19.0   251    8.7 
2025-07-28 00:00 UT   01 17 35.1   -05 25 41     2.482    2.965  108.6   18.9   252    8.6 
2025-07-29 00:00 UT   01 17 58.3   -05 27 12     2.469    2.965  109.4   18.8   252    8.6 
2025-07-30 00:00 UT   01 18 20.4   -05 28 51     2.456    2.965  110.3   18.7   252    8.6 
2025-07-31 00:00 UT   01 18 41.3   -05 30 37     2.443    2.964  111.1   18.6   252    8.6 
2025-08-01 00:00 UT   01 19 01.0   -05 32 31     2.431    2.964  112.0   18.5   253    8.6 
2025-08-02 00:00 UT   01 19 19.5   -05 34 33     2.418    2.964  112.8   18.4   253    8.6 
2025-08-03 00:00 UT   01 19 36.8   -05 36 42     2.406    2.963  113.7   18.3   253    8.5 
2025-08-04 00:00 UT   01 19 53.0   -05 38 58     2.394    2.963  114.6   18.1   254    8.5 
2025-08-05 00:00 UT   01 20 07.9   -05 41 22     2.381    2.963  115.5   18.0   254    8.5 
2025-08-06 00:00 UT   01 20 21.5   -05 43 54     2.369    2.962  116.4   17.9   254    8.5 
2025-08-07 00:00 UT   01 20 33.9   -05 46 33     2.357    2.962  117.2   17.7   254    8.5 
2025-08-08 00:00 UT   01 20 45.1   -05 49 19     2.345    2.962  118.1   17.6   255    8.5 
2025-08-09 00:00 UT   01 20 55.0   -05 52 13     2.334    2.961  119.0   17.4   255    8.5 
2025-08-10 00:00 UT   01 21 03.6   -05 55 14     2.322    2.961  119.9   17.3   255    8.4 
2025-08-11 00:00 UT   01 21 10.9   -05 58 22     2.310    2.961  120.8   17.1   256    8.4 
2025-08-12 00:00 UT   01 21 16.9   -06 01 37     2.299    2.960  121.8   16.9   256    8.4 
2025-08-13 00:00 UT   01 21 21.6   -06 04 59     2.288    2.960  122.7   16.7   256    8.4 
2025-08-14 00:00 UT   01 21 25.0   -06 08 28     2.276    2.960  123.6   16.6   257    8.4 
2025-08-15 00:00 UT   01 21 27.1   -06 12 05     2.265    2.959  124.5   16.4   257    8.4 
2025-08-16 00:00 UT   01 21 27.8   -06 15 48     2.254    2.959  125.4   16.2   257    8.3 
2025-08-17 00:00 UT   01 21 27.1   -06 19 37     2.243    2.959  126.4   16.0   258    8.3 
2025-08-18 00:00 UT   01 21 25.1   -06 23 34     2.233    2.958  127.3   15.8   258    8.3 
2025-08-19 00:00 UT   01 21 21.7   -06 27 37     2.222    2.958  128.3   15.6   259    8.3 


    Terminology:
            
    delta:  distance between minor planet and earth in AU
    radius: distance between minor planet and sun in AU
    magn:   magnitude (brightness) estimate    
    ra:     right ascension in hours (24h = 360deg)
    dec:    declination in degrees
    elong:  elongation in degrees (angle sun-earth-minor planet)    
    phase:  phase angle in degrees (angle sun-minor planet-earth)        
    AU:     Astronomical Unit (mean distance between earth and sun: 149597870.7 km
    

Orbital elements provided by the MPC (Minor Planet Center).
Calculations by a modified version of AAPlus, a C# implementation of the AA+ project by PJ Naughter from the algorithms presented in the book "Astronomical Algorithms" by Jean Meeus.
NGC2000 dso catalog and star labels from VizieR as provided by the Strasbourg astronomical Data Center.
Tycho2 catalog from the ESO archive.